Location: Unspecified
(0.0000°N, 0.0000°E)
Time: 10:57:29
(UTC+00:00)

COSMOS-2414 - Visible Passes

Search period start: 14 May 2025 00:00
Search period end: 24 May 2025 00:00
Orbit: 906 x 966 km, 83.0° (Epoch: 13 May)

Date Brightness Start Highest point End Pass type
(mag) Time Alt. Az. Time Alt. Az. Time Alt. Az.
14 May 6.8 19:48:31 10° NNW 19:54:23 48° W 20:00:16 10° SSW visible
15 May 7.1 18:19:08 10° NE 18:23:41 22° E 18:28:16 10° SE visible
15 May 7.7 20:02:41 10° NW 20:07:53 29° W 20:13:09 10° SSW visible
16 May 6.5 18:31:37 10° NNE 18:37:11 36° E 18:42:47 10° SSE visible
16 May 8.4 20:17:31 10° NW 20:21:23 17° W 20:25:18 10° SW visible
17 May 6.0 18:44:37 10° N 18:50:40 60° E 18:56:46 10° SSE visible
18 May 6.0 18:58:00 10° N 19:04:10 84° W 19:10:23 10° S visible
19 May 6.8 19:11:43 10° NNW 19:17:40 51° W 19:23:39 10° SSW visible
20 May 7.7 19:25:50 10° NNW 19:31:09 31° W 19:36:31 10° SSW visible
21 May 8.5 19:40:35 10° NW 19:44:40 18° W 19:48:46 10° SW visible
22 May 9.2 05:14:32 10° E 05:15:09 10° E 05:15:47 10° E visible
22 May 9.1 19:57:58 10° W 19:58:10 10° W 19:58:22 10° W visible
23 May 8.6 05:24:40 10° SE 05:28:39 19° E 05:32:37 10° NE visible
23 May 6.1 18:21:14 10° N 18:27:26 88° W 18:33:39 10° S visible
